User: anonymous   Login
Location: Nebula Knoll Observatory
(43.6666°N, 71.0000°W)
Time: 19:10:39
(UTC-05:00)
Language:

Cosmos 1782 - Orbit

View from above orbital plane
View from above orbital plane
View from above satellite
View from above satellite

Ground track
Ground track

The orbit data is extracted from the following two-line orbital elements,

1 16986U 86074A   18021.81317256  .00000647  00000-0  41551-4 0  9997
2 16986  82.5057 268.5127 0010337 325.1154  34.9395 15.06769252703775
Epoch (UTC): 21 January 2018 19:30:58
Eccentricity: 0.0010337
inclination: 82.5057°
perigee height: 539 km
apogee height: 553 km
right ascension of ascending node: 268.5127°
argument of perigee: 325.1154°
revolutions per day: 15.06769252
mean anomaly at epoch: 34.9395°
orbit number at epoch: 70377

The dashed part of the orbit path shows where the satellite is in the earth's shadow,  

DLR